EW9433 Weather Reports


Display with metric or nautical units.
time (UTC)temp
F
wind
direction
speed
MPH
gust
MPH
rain 1hr
in
rain 24hr
in
rain mn
in
humidity
%
barometer
mb
20181118160017 41 315 8.0 16.0 0.00 0.01 0.01 84 1024.6
20181118153017 41 315 6.0 13.0 0.00 0.01 0.01 87 1024.5
20181118150017 40 292 6.0 14.0 0.00 0.01 0.01 89 1024.1
20181118143016 41 315 7.0 14.0 0.00 0.01 0.01 89 1023.7
20181118140017 41 315 6.0 14.0 0.00 0.01 0.01 89 1023.4
20181118133016 43 315 7.0 15.0 0.00 0.01 0.01 86 1023.3
20181118130016 44 315 6.0 14.0 0.00 0.01 0.01 85 1022.9
20181118123017 44 315 5.0 12.0 0.00 0.01 0.01 84 1022.6
20181118120016 45 315 6.0 16.0 0.00 0.01 0.01 82 1021.8
20181118113016 46 315 6.0 12.0 0.00 0.01 0.01 81 1021.5
20181118110016 46 315 5.0 11.0 0.00 0.01 0.01 81 1021.3
20181118103017 46 337 6.0 14.0 0.00 0.01 0.01 80 1020.7
20181118100017 47 315 7.0 14.0 0.00 0.01 0.01 80 1020.2
20181118093016 48 337 9.0 16.0 0.00 0.01 0.01 80 1019.6
20181118090016 50 337 10.0 19.0 0.00 0.01 0.01 82 1019.1
20181118083016 55 337 1.0 3.0 0.00 0.01 0.01 91 1018.3
20181118080017 56 0.0 2.0 0.01 0.01 0.01 87 1017.8
20181118073016 56 0.0 3.0 0.01 0.01 0.01 86 1017.9
20181118070016 57 135 2.0 8.0 0.00 0.00 0.00 83 1018.1
20181118063016 57 135 1.0 5.0 0.00 0.00 0.00 84 1017.4
20181118060016 56 112 1.0 3.0 0.00 0.00 0.00 83 1017.8
20181118053015 56 0.0 3.0 0.00 0.00 0.00 83 1017.7
20181118050015 56 0.0 0.0 0.00 0.00 0.00 82 1017.8
20181118043016 56 0.0 0.0 0.00 0.00 0.00 83 1017.8
20181118040015 55 0.0 0.0 0.00 0.00 0.00 84 1017.7
20181118033015 54 0.0 0.0 0.00 0.00 0.00 85 1017.5
20181118030015 54 0.0 0.0 0.00 0.00 0.00 86 1017.4
20181118023016 54 0.0 0.0 0.00 0.00 0.00 85 1017.3
20181118020015 54 0.0 0.0 0.00 0.00 0.00 83 1016.8
20181118013015 55 0.0 0.0 0.00 0.00 0.00 80 1016.8
20181118010015 57 0.0 0.0 0.00 0.00 0.00 78 1016.6
20181118003017 58 0.0 1.0 0.00 0.00 0.00 76 1016.3
20181118000017 59 0.0 2.0 0.00 0.00 0.00 72 1016.0
20181117233017 62 0.0 4.0 0.00 0.00 0.00 68 1015.8
20181117230015 66 135 2.0 7.0 0.00 0.00 0.00 59 1015.7
20181117223017 68 202 3.0 10.0 0.00 0.00 0.00 55 1015.8
20181117220017 69 157 4.0 10.0 0.00 0.00 0.00 52 1015.7
20181117213017 68 202 5.0 13.0 0.00 0.00 0.00 54 1015.9
20181117210017 69 202 6.0 13.0 0.00 0.00 0.00 54 1015.9
20181117203017 68 202 6.0 16.0 0.00 0.00 0.00 51 1016.1
20181117200017 67 225 7.0 15.0 0.00 0.00 0.00 57 1016.3
20181117193017 66 225 7.0 17.0 0.00 0.00 0.00 62 1016.5
20181117190017 65 225 7.0 17.0 0.00 0.00 0.00 64 1016.9
20181117183016 65 202 8.0 16.0 0.00 0.00 0.00 67 1017.5
20181117180017 64 225 6.0 14.0 0.00 0.00 0.00 69 1018.1
20181117173017 62 225 7.0 16.0 0.00 0.00 0.00 73 1018.9
20181117170017 61 225 8.0 18.0 0.00 0.00 0.00 74 1019.4
20181117163016 60 202 5.0 18.0 0.00 0.00 0.00 73 1019.4